Location: Unspecified
(0.0000°N, 0.0000°E)
Time: 15:10:17
(UTC+00:00)

SL-14 DEB - Visible Passes

Search period start: 15 June 2025 00:00
Search period end: 25 June 2025 00:00
Orbit: 974 x 1256 km, 82.6° (Epoch: 14 June)

Date Brightness Start Highest point End Pass type
(mag) Time Alt. Az. Time Alt. Az. Time Alt. Az.
15 Jun ? 05:11:57 10° SSE 05:18:34 36° E 05:24:48 10° NNE visible
15 Jun ? 18:39:33 10° NNW 18:45:12 32° W 18:51:11 10° SSW visible
16 Jun ? 04:33:35 10° SE 04:37:49 16° E 04:41:55 10° ENE visible
17 Jun ? 19:10:03 10° WNW 19:12:08 12° W 19:14:15 10° WSW visible
18 Jun ? 04:58:01 10° SSE 05:04:47 41° E 05:11:07 10° NNE visible
18 Jun ? 18:25:56 10° NW 18:31:22 28° W 18:37:08 10° SSW visible
19 Jun ? 04:19:14 10° SE 04:24:03 19° E 04:28:38 10° NE visible
20 Jun ? 05:24:22 10° S 05:31:39 84° W 05:38:25 10° N visible
21 Jun ? 04:44:06 10° SSE 04:50:59 47° E 04:57:23 10° NNE visible
22 Jun ? 04:05:01 10° SE 04:10:14 22° E 04:15:13 10° NE visible
23 Jun ? 05:10:41 10° S 05:17:50 73° W 05:24:28 10° N visible
24 Jun ? 04:30:14 10° S 04:37:10 54° E 04:43:37 10° NNE visible
